Weather in Azovskoe

Russia / Republic of Crimea     45°35′07″N   34°34′01″E
temp.,
°C
wind,
m/s
gust,
m/s
humid.,
%
clouds,
%
prec.,
mm/h
press.,
hPa
HPBL,
m
24 september, fri
fri2400:00+11wnw3667100 0.0 1015269
03:00+10wnw36705 0.0 1015280
06:00+8w33825 0.0 101555
09:00+12wsw3562100 0.0 1015615
12:00+16wsw5847100 0.0 10141671
15:00+16wsw7948100 0.0 10121744
18:00+14sw51176100 0.7 1011805
21:00+13wsw71388100 5.3 1010765
25 september, sat
sat2500:00+12wsw410935 1.9 1010286
03:00+11w5118727 2.0 1010253
06:00+10w48863 0.0 1011164
09:00+14wnw6106873 0.0 1013818
12:00+15wnw7106288 0.4 10141240
15:00+17wnw81047100 0.8 10152064
18:00+15nw585553 0.0 1017536
21:00+12w35684 0.0 102083
26 september, sun
sun2600:00+11wsw48725 0.0 1020140
03:00+13sw4106825 0.0 1020231
06:00+13wsw51170100 0.0 1020262
09:00+16wsw61268100 0.0 1020451
12:00+20w71159100 0.0 10201267
15:00+23w9124452 0.0 10191720
18:00+20wnw61055100 0.0 1018733
21:00+17w4867100 0.0 1019226
27 september, mon
mon2700:00+15wnw36800 0.0 1019102
03:00+13nne34745 0.0 101974
06:00+12n33721 0.0 101953
09:00+15nne34540 0.0 1020656
12:00+18n44450 0.0 10201296
15:00+18nne54390 0.0 10191448
18:00+16ene34460 0.0 1020140
21:00+12ese22603 0.0 102128
28 september, tue
tue2800:00+12w006183 0.0 102110
03:00+14nnw2256100 0.0 102146
06:00+13ne346195 0.0 102180
09:00+15nne4655100 0.0 1021873
12:00+16ne675398 0.2 10221419
15:00+17ne665175 0.3 10221528
18:00+15ene476370 0.0 1023622
21:00+14ene387078 0.1 1023226